Simultaneous Nadir Overpasses (SNOs) Predictions

Prediction of SNOs between METOP-B and NOAA-19 Satellite Orbit:

Table of predicted SNOs for the next 14.0 days since TLE Epoch: 8/14/2020
Index Date (METOP-B) Time (METOP-B) Lat,Lon (METOP-B) SZA (METOP-B ) Date (NOAA-19) Time (NOAA-19) Lat,Lon (NOAA-19) SZA (NOAA-19 ) Distance(km) Time Diff (sec)
1 08/15/2020 22:30:22 -80.14, 45.89 112.81 08/15/2020 22:29:08 -80.14, 45.85 112.83 0.77 74
2 08/15/2020 23:21:03 80.13,-146.84 67.20 08/15/2020 23:20:08 80.14,-146.82 67.19 0.51 55
3 08/16/2020 00:11:44 -80.12, 20.41 112.80 08/16/2020 00:11:08 -80.13, 20.53 112.80 2.23 36
4 08/16/2020 01:02:25 80.12,-172.32 67.20 08/16/2020 01:02:08 80.12,-172.14 67.21 3.34 17
5 08/16/2020 01:53:05 -80.14, -4.76 112.76 08/16/2020 01:53:08 -80.12, -4.80 112.78 2.60 3
6 08/16/2020 02:43:46 80.13, 162.51 67.25 08/16/2020 02:44:08 80.11, 162.53 67.24 2.60 22
7 08/16/2020 03:34:27 -80.13, -30.24 112.76 08/16/2020 03:35:08 -80.11, -30.14 112.76 3.08 41
8 08/16/2020 04:25:08 80.12, 137.03 67.25 08/16/2020 04:26:09 80.12, 136.89 67.26 2.74 61
9 08/26/2020 23:43:39 -80.15, 27.69 109.05 08/26/2020 23:42:26 -80.17, 27.58 109.06 2.74 73
10 08/27/2020 00:34:19 80.17,-164.81 70.99 08/27/2020 00:33:28 80.15,-164.90 70.96 2.52 51
11 08/27/2020 01:25:01 -80.14, 2.21 109.05 08/27/2020 01:24:26 -80.16, 2.25 109.04 2.26 35
12 08/27/2020 02:15:41 80.15, 169.71 71.00 08/27/2020 02:15:28 80.14, 169.78 70.98 2.18 13
13 08/27/2020 03:06:22 -80.15, -22.97 109.00 08/27/2020 03:06:26 -80.14, -23.08 109.01 2.31 4
14 08/27/2020 03:57:03 80.14, 144.23 71.00 08/27/2020 03:57:29 80.15, 144.13 71.01 2.08 26
15 08/27/2020 04:47:44 -80.14, -48.44 108.99 08/27/2020 04:48:26 -80.13, -48.41 108.98 0.94 42
16 08/27/2020 05:38:25 80.13, 118.75 71.00 08/27/2020 05:39:29 80.13, 118.80 71.04 1.37 64
